Fairbanks Eiels, AK

10:11 PM AKST on November 18, 2017 (GMT -0900)
Eielson Air Force Base

Weather History for PAEI - January, 2013

Change the Weather History Date:

Wednesday, January 9, 2013

  Actual Average Record
Temperature  
Mean Temperature -10 °F -  
Max Temperature 1 °F -4 °F 42 °F (1955)
Min Temperature -21 °F -20 °F -53 °F (1952)
Degree Days  
Heating Degree Days 75    
Moisture  
Dew Point -10 °F    
Average Humidity 79    
Maximum Humidity 85    
Minimum Humidity 73    
Precipitation  
Precipitation 0.00 in - - ()
Sea Level Pressure  
Sea Level Pressure 30.18 in    
Wind  
Wind Speed 0 mph (NNE)    
Max Wind Speed 12 mph    
Max Gust Speed 46 mph    
Visibility 10 miles    
Events Snow    
Averages and records for this station are not official NWS values.
T = Trace of Precipitation, MM = Missing Value Source: NWS Daily Summary

Daily Weather History Graph

Daily Weather History Graph

Search for Another Location

Airport or City:

Trip Planner

Search our weather history database for the weather conditions in past years. The results will help you decide how hot, cold, wet, or windy it might be!

Date:

Astronomy

Jan. 09, 2013 Rise Set
Actual Time 10:34 AM AKST 3:17 PM AKST
Civil Twilight 9:20 AM AKST 4:31 PM AKST
Nautical Twilight 8:12 AM AKST 5:39 PM AKST
Astronomical Twilight 7:12 AM AKST 6:39 PM AKST
Moon 8:26 AM AKST (1/9) 1:26 PM AKST (1/9)
Length of Visible Light 7h 11m
Length of Day
4h 42m
Waning Crescent, 5% of the Moon is Illuminated
Jan 9
Waning Crescent
Jan 11
New
Jan 18
First Quarter
Jan 26
Full
Feb 3
Last Quarter

Hourly Weather History & Observations

Time (AKST) Temp. Windchill Dew Point Humidity Pressure Visibility Wind Dir Wind Speed Gust Speed Precip Events Conditions
12:30 AM -2.2 °F - -5.8 °F 85% 30.16 in 7.0 mi Calm Calm - N/A   Overcast
12:45 AM -2.2 °F - -5.8 °F 85% 30.17 in 10.0 mi Calm Calm - N/A   Overcast
12:55 AM -1.1 °F - -5.6 °F 81% 30.17 in 10.0 mi Calm Calm - N/A   Overcast
12:56 AM -0.4 °F - -5.8 °F 78% 30.17 in 10.0 mi Calm Calm - N/A   Overcast
12:59 AM -0.4 °F - -5.8 °F 78% 30.17 in 10.0 mi Calm Calm - N/A   Overcast
1:00 AM -0.4 °F - -5.8 °F 78% 30.17 in 10.0 mi Calm Calm - N/A   Overcast
1:55 AM -1.1 °F - -5.6 °F 81% 30.19 in 10.0 mi Calm Calm - N/A   Overcast
2:15 AM -0.4 °F - -5.8 °F 78% 30.20 in 10.0 mi Calm Calm - N/A   Overcast
2:20 AM -0.4 °F - -5.8 °F 78% 30.20 in 10.0 mi Calm Calm - N/A Snow Light Snow
2:21 AM -0.4 °F - -5.8 °F 78% 30.20 in 10.0 mi Calm Calm - N/A Snow Light Snow
2:33 AM -0.4 °F - -5.8 °F 78% 30.20 in 10.0 mi Calm Calm - N/A   Overcast
2:40 AM -0.4 °F - -4.0 °F 85% 30.20 in 10.0 mi Calm Calm - N/A   Overcast
2:44 AM -0.4 °F - -4.0 °F 85% 30.20 in 10.0 mi Calm Calm - N/A   Overcast
2:50 AM -0.4 °F - -4.0 °F 85% 30.20 in 10.0 mi Calm Calm - N/A Snow Light Snow
2:52 AM -0.4 °F - -4.0 °F 85% 30.20 in 10.0 mi Calm Calm - N/A Snow Light Snow
2:55 AM 0.3 °F - -4.2 °F 81% 30.20 in 10.0 mi Calm Calm - 0.00 in Snow Light Snow
3:07 AM 1.4 °F - -4.0 °F 78% 30.19 in 10.0 mi Calm Calm - N/A Snow Light Snow
3:17 AM -0.4 °F - -4.0 °F 85% 30.19 in 10.0 mi Calm Calm - N/A Snow Light Snow
3:30 AM -0.4 °F - -4.0 °F 85% 30.20 in 10.0 mi Calm Calm - N/A Snow Light Snow
3:31 AM -0.4 °F - -4.0 °F 85% 30.20 in 9.0 mi Calm Calm - N/A Snow Light Snow
3:35 AM -0.4 °F - -4.0 °F 85% 30.20 in 9.0 mi Calm Calm - N/A Snow Light Snow
3:37 AM -0.4 °F - -4.0 °F 85% 30.20 in 9.0 mi Calm Calm - N/A Snow Light Snow
3:42 AM -0.4 °F - -4.0 °F 85% 30.20 in 10.0 mi Calm Calm - N/A Snow Light Snow
3:44 AM -0.4 °F - -4.0 °F 85% 30.20 in 10.0 mi Calm Calm - N/A Snow Light Snow
3:46 AM -0.4 °F - -5.8 °F 78% 30.20 in 10.0 mi Calm Calm - N/A Snow Light Snow
3:50 AM -0.4 °F -8.3 °F -5.8 °F 78% 30.20 in 10.0 mi North 3.5 mph - N/A Snow Light Snow
3:55 AM -1.5 °F -11.6 °F -5.8 °F 82% 30.21 in 8.0 mi North 4.6 mph - 0.00 in Snow Light Snow
3:59 AM -2.2 °F -14.2 °F -5.8 °F 85% 30.21 in 8.0 mi NNW 5.8 mph - N/A Snow Light Snow
4:00 AM -2.2 °F -14.2 °F -5.8 °F 85% 30.21 in 8.0 mi Variable 5.8 mph - N/A Snow Light Snow
4:21 AM -2.2 °F - -7.6 °F 78% 30.21 in 10.0 mi Calm Calm - N/A   Overcast
4:35 AM -2.2 °F - -7.6 °F 78% 30.21 in 7.0 mi Calm Calm - N/A Snow Light Snow
4:37 AM -2.2 °F - -7.6 °F 78% 30.21 in 7.0 mi Calm Calm - N/A Snow Light Snow
4:55 AM -3.5 °F - -8.3 °F 80% 30.21 in 10.0 mi Calm Calm - 0.00 in Snow Light Snow
5:09 AM -4.0 °F - -9.4 °F 78% 30.21 in 8.0 mi Calm Calm - N/A Snow Light Snow
5:13 AM -4.0 °F - -9.4 °F 78% 30.21 in 8.0 mi Calm Calm - N/A Snow Light Snow
5:16 AM -4.0 °F - -9.4 °F 78% 30.22 in 8.0 mi Calm Calm - N/A Snow Light Snow
5:23 AM -4.0 °F - -9.4 °F 78% 30.22 in 10.0 mi Calm Calm - N/A Snow Light Snow
5:24 AM -4.0 °F - -9.4 °F 78% 30.22 in 10.0 mi Calm Calm - N/A Snow Light Snow
5:33 AM -4.0 °F - -9.4 °F 78% 30.22 in 8.0 mi Calm Calm - N/A Snow Light Snow
5:55 AM -4.7 °F - -9.6 °F 80% 30.22 in 10.0 mi Calm Calm - 0.00 in   Overcast
6:07 AM -4.0 °F - -9.4 °F 78% 30.21 in 10.0 mi Calm Calm - N/A   Overcast
6:24 AM -2.2 °F - -7.6 °F 78% 30.21 in 10.0 mi Calm Calm - N/A   Overcast
6:25 AM -2.2 °F - -7.6 °F 78% 30.21 in 10.0 mi Calm Calm - N/A   Overcast
6:37 AM -2.2 °F - -7.6 °F 78% 30.21 in 10.0 mi Calm Calm - N/A   Overcast
6:55 AM -3.1 °F - -7.8 °F 80% 30.21 in 10.0 mi Calm Calm - N/A   Overcast
7:06 AM -4.0 °F - -7.6 °F 85% 30.21 in 10.0 mi Calm Calm - N/A   Overcast
7:24 AM -5.8 °F - -9.4 °F 84% 30.21 in 10.0 mi Calm Calm - N/A   Mostly Cloudy
7:55 AM -6.2 °F - -11.2 °F 79% 30.21 in 10.0 mi Calm Calm - N/A   Mostly Cloudy
8:55 AM -4.9 °F - -9.8 °F 80% 30.20 in 10.0 mi Calm Calm - 0.00 in   Overcast
9:20 AM -7.6 °F - -13.0 °F 77% 30.20 in 10.0 mi Calm Calm - N/A   Overcast
9:26 AM -7.6 °F - -13.0 °F 77% 30.21 in 10.0 mi Calm Calm - N/A   Mostly Cloudy
9:55 AM -9.0 °F - -14.3 °F 78% 30.21 in 10.0 mi Calm Calm - N/A   Partly Cloudy
10:55 AM -15.2 °F - -21.1 °F 75% 30.21 in 10.0 mi Calm Calm - N/A   Partly Cloudy
11:55 AM -11.9 °F - -17.3 °F 77% 30.21 in 10.0 mi Calm Calm - N/A   Partly Cloudy
12:55 PM -12.5 °F - -18.0 °F 76% 30.20 in 10.0 mi Calm Calm - N/A   Clear
1:55 PM -11.6 °F - -17.0 °F 77% 30.19 in 10.0 mi Calm Calm - N/A   Clear
2:06 PM -9.4 °F -28.9 °F -14.8 °F 77% 30.18 in 0.2 mi East 11.5 mph 46.0 mph N/A Snow Heavy Snow
2:55 PM -13.9 °F - -19.8 °F 75% 30.17 in 10.0 mi Calm Calm - 0.00 in   Clear
3:55 PM -13.5 °F - -19.1 °F 76% 30.16 in 10.0 mi Calm Calm - N/A   Clear
4:55 PM -15.2 °F - -20.7 °F 76% 30.13 in 10.0 mi Calm Calm - N/A   Clear
5:55 PM -15.0 °F - -20.7 °F 75% 30.11 in 10.0 mi Calm Calm - N/A   Clear
6:55 PM -17.7 °F - -23.6 °F 74% 30.08 in 10.0 mi Calm Calm - N/A   Clear
7:55 PM -20.6 °F - -26.9 °F 73% 30.06 in 10.0 mi Calm Calm - N/A   Clear
8:55 PM -21.8 °F - -28.1 °F 73% 30.02 in 10.0 mi Calm Calm - N/A   Clear
9:55 PM -21.5 °F - -27.8 °F 73% 30.00 in 10.0 mi Calm Calm - N/A   Clear
10:55 PM -21.5 °F - -27.8 °F 73% 29.98 in 10.0 mi Calm Calm - N/A   Partly Cloudy
11:55 PM -18.2 °F - -24.2 °F 74% 29.96 in 10.0 mi Calm Calm - N/A   Mostly Cloudy